Regional Weather Roundup
Issued by NWS Goodland, KS

Home | Current Version | Previous Version | Graphics & Text | Print | Product List | Glossary On
Versions: 1 2 3 4 5 6 7 8 9 10 11 12 13 14 15 16 17 18 19 20 21 22 23 24 25 26 27 28 29 30 31 32 33 34 35 36 37 38 39 40 41 42 43 44 45 46 47 48 49 50
000
ASUS43 KGLD 020659
RWRGLD

GOODLAND FORECAST AREA HOURLY WEATHER ROUNDUP
NATIONAL WEATHER SERVICE GOODLAND KS
100 AM MDT THU JUL 02 2015

...OFFICIAL OBSERVATIONS...

CITY           SKY/WX    TMP DP  RH WIND       PRES   REMARKS
GOODLAND KS    MOCLDY    67  61  81 NW6       30.01F
HILL CITY KS   MOCLDY    73  62  68 N3        29.91F
IMPERIAL NEB   CLOUDY    71  60  68 N13       29.98F
MCCOOK NEB     CLOUDY    75  64  68 SW7       29.93F
AKRON CO       CLEAR     66  56  70 S10       30.09F
BURLINGTON CO  MOCLDY    68  60  75 N9        30.07F
LIMON CO       PTCLDY    61  58  90 S7        30.16F
$$

...UNOFFICIAL OBSERVATIONS...

CITY           SKY/WX    TMP DP  RH WIND       PRES   REMARKS
COLBY KS       CLEAR     72  63  73 NW8       30.01F
GOVE KS          N/A     79  32  18 MISG        N/A
NORTON KS      CLEAR     70  61  73 NE3       29.92S
SHARON SPRINGS   N/A     71  61  70 CALM        N/A
KIT CARSON CO    N/A     66  62  88 MISG        N/A
$$



USA.gov is the U.S. government's official web portal to all federal, state and local government web resources and services.